Weather observations for the past three days for
Chignik, Chignik Airport
Imperial (Metric)
Date Time (akdt) Wind (mph) Vis. (mi.) Weather Sky Cond. Temperature (ºF) Relative Humidity Wind Chill (°F) Heat Index (°F) Pressure Precipitation (in)
Air Dwpt 6 hour altimeter (in) sea level (mb) 1 hr 3 hr 6 hr
Max. Min.
24 02:57 Calm 10.00 Mostly Cloudy BKN015 52 46.9 83% 30.1 1019.3
24 01:57 Calm 10.00 Overcast OVC015 52 48 86% 30.1 1019.3
24 00:59 NE 5 10.00 Mostly Cloudy BKN015 53.1 48 83% 30.1 1019.2
23 23:57 E 6 10.00 Fair CLR 53.1 48 83% 30.09 1019.1
23 22:57 E 7 10.00 Fair CLR 53.1 48 83% 30.1 1019.1
23 20:57 E 8 10.00 Fair CLR 55 48.9 80% 30.08 1018.7
23 19:57 S 5 10.00 Fair CLR 57 50 78% 30.08 1018.7
23 18:59 Vrbl 5 10.00 Mostly Cloudy BKN019 59 50 72% 30.08 1018.7
23 17:57 E 6 10.00 Fair CLR 57.9 48.9 72% 30.09 1018.8
23 16:57 Vrbl 7 10.00 Fair CLR 60.1 50 70% 30.09 1019.1
23 14:57 NE 9 10.00 Overcast OVC018 57 48.9 74% 30.11 1019.6
23 13:57 N 9 10.00 Overcast OVC016 57 48.9 74% 30.11 1019.5
23 12:57 N 8 10.00 Overcast OVC014 55 48 77% 30.11 1019.6
23 11:57 E 6 10.00 Overcast OVC012 54 48 80% 30.12 1020.0
23 10:57 SE 6 10.00 Overcast OVC010 53.1 48 83% 30.12 1019.8
23 09:57 Vrbl 3 10.00 Overcast OVC010 52 48 52 51.1 86% 30.11 1019.7
23 07:57 E 5 10.00 Overcast OVC008 51.1 48 89% 30.11 1019.8
23 06:57 Vrbl 3 10.00 Overcast OVC006 51.1 48.9 92% 30.11 1019.8
23 04:57 E 3 10.00 Overcast OVC006 51.1 48.9 92% 30.12 1019.9
23 03:57 Calm 7.00 Overcast OVC006 52 50 55.9 52 93% 30.12 1020.1
23 02:57 Calm 10.00 Overcast OVC008 53.1 50 89% 30.13 1020.2
23 01:57 NW 5 10.00 Overcast OVC008 53.1 50 89% 30.13 1020.4
23 00:57 W 3 10.00 Overcast OVC010 54 50 87% 30.13 1020.4
22 23:57 Vrbl 3 10.00 Mostly Cloudy BKN010 54 51.1 90% 30.13 1020.3
22 22:57 Calm 9.00 Fair CLR 54 51.1 90% 30.11 1019.6
22 21:57 N 3 10.00 Fair CLR 55.9 52 59 55.9 87% 30.1 1019.2
22 19:57 NW 5 10.00 Fair CLR 57.9 52 81% 30.09 1019.1
22 18:57 N 6 10.00 Fair CLR 57.9 52 81% 30.1 1019.2
22 17:57 NW 5 10.00 Fair CLR 57.9 51.1 78% 30.1 1019.5
22 16:57 NW 5 10.00 Fair CLR 57.9 51.1 78% 30.09 1019.1
22 15:57 N 6 10.00 Fair CLR 57 52 57 52 83% 30.11 1019.5
22 13:57 NW 6 9.00 Overcast OVC003 54 50 87% 30.1 1019.4
22 11:59 N 5 2.00 Fog/Mist OVC003 52 50 93% 30.09 1019.1
22 09:59 N 3 1.50 Fog/Mist OVC003 51.1 48.9 51.1 50 92% 30.08 1018.7
22 08:57 SW 3 10.00 Overcast OVC003 50 48.9 96% 30.08 1018.7
22 07:57 SW 3 10.00 Overcast OVC003 51.1 48.9 92% 30.08 1018.6
22 06:57 Calm 10.00 Overcast OVC005 51.1 48.9 92% 30.08 1018.7
22 05:57 S 5 10.00 Overcast OVC005 51.1 48.9 92% 30.08 1018.7
22 04:57 Calm 10.00 Overcast OVC005 51.1 50 96% 30.09 1018.9
22 03:57 NW 5 10.00 Overcast OVC005 52 50 54 51.1 93% 30.1 1019.2
22 02:57 NW 5 10.00 Overcast OVC005 52 50 93% 30.1 1019.4
22 00:57 NW 6 6.00 Fog/Mist OVC003 52 50 93% 30.11 1019.8
21 22:57 SW 6 10.00 Overcast OVC007 53.1 50 89% 30.13 1020.2
21 21:57 SW 3 10.00 Partly Cloudy SCT007 54 51.1 68 54 90% 30.12 1019.8
21 18:57 Vrbl 7 10.00 Fair CLR 64 52 65% 30.12 1019.9
21 16:57 Vrbl 7 10.00 Fair CLR 66.9 52 59% 30.13 1020.3
21 15:57 Vrbl 6 10.00 Fair CLR 66.9 53.1 68 57 61% 30.14 1020.6
21 13:57 E 9 G 17 10.00 Fair CLR 63 53.1 70% 30.15 1021.2
21 12:57 N 8 10.00 Fair CLR 64.9 53.1 66% 30.16 1021.4
21 11:57 SE 6 10.00 Fair CLR 63 53.1 70% 30.17 1021.7
21 10:57 Vrbl 7 10.00 Fair CLR 62.1 52 70% 30.18 1021.9
21 09:57 Calm 10.00 Fair CLR 57.9 51.1 57.9 50 78% 30.19 1022.4
21 08:57 Calm 10.00 Fair CLR 55.9 51.1 84% 30.2 1022.6
21 07:57 N 3 10.00 Fair CLR 53.1 50 89% 30.19 1022.5
21 06:57 S 3 10.00 Fair CLR 51.1 48 89% 30.19 1022.3
21 03:57 Calm 10.00 Fair CLR 53.1 48.9 64 51.1 86% 30.2 1022.8
Date Time (akdt) Wind (mph) Vis. (mi.) Weather Sky Cond. Air Dwpt Max. Min. Relative Humidity Wind Chill (°F) Heat Index (°F) altimeter (in) sea level (mb) 1 hr 3 hr 6 hr
6 hour
Temperature (ºF) Pressure Precipitation (in)